Погода в Поречье

Россия / Калужская область     54°52′12″N   36°34′05″E
темп.,
°C
ветер,
м/с
пор.,
м/с
влажн.,
%
обл.,
%
осадки,
мм/ч
давл.,
гПа
погр.,
м
11 мая, вт
вт1100:00+5св311820 0.0 1026205
03:00+4св311860 0.0 1027217
06:00+6св413840 0.0 1027348
09:00+12св69620 0.0 1026572
12:00+17св68555 0.0 1025780
15:00+19всв57575 0.0 10241072
18:00+18всв48685 0.0 1023888
21:00+13вюв3795100 0.8 1025177
12 мая, ср
ср1200:00+11юв279676 0.1 1025178
03:00+8ююв23965 0.1 102655
06:00+8юв22930 0.0 102658
09:00+13всв237254 0.0 1026620
12:00+11св2586100 0.3 1024248
15:00+10ссз2696100 2.9 1021221
18:00+11ююв2499100 2.6 1018217
21:00+8ююв399826 3.8 1019299
13 мая, чт
чт1300:00+6вюв389711 0.0 1020160
03:00+6в4139653 0.0 1019295
06:00+8вюв51295100 0.0 1019407
09:00+10вюв51393100 0.1 1018758
12:00+12вюв41092100 0.6 1017659
15:00+11юз3597100 6.7 1016260
18:00+12ю269295 1.6 1014316
21:00+9ю259611 1.8 101687
14 мая, пт
пт1400:00+7ю23955 0.0 101747
03:00+7ююв23957 0.0 101754
06:00+8юв2596100 0.0 1017111
09:00+13вюв3580100 0.0 1017347
12:00+19вюв4770100 0.3 1015779
15:00+18юв598599 4.5 1014682
18:00+18ююв51082100 2.9 1011383
21:00+15юв379479 4.0 1011131
15 мая, сб
сб1500:00+14ююв3595100 0.3 101191
03:00+14юв369496 0.8 101097
06:00+14ююв31097100 2.1 1010307
09:00+18ю4783100 2.1 1010572
12:00+20ю577595 0.7 10091150
15:00+21ююз466992 2.7 1008961
18:00+19ююз488042 2.1 1008583
21:00+14ююз31094100 5.4 1009246